This demonstration page uses our WeatherBlox Daily Observations layout. Learn more.

Left ArrowRight Arrow

44.8408, -93.29828

Hourly Observations for March 2, 2018

Temp ( °F °C ) Dew Point ( °F °C ) Humidity (%) Winds ( mph kmh ) Pressure ( in mb ) Visibility ( mi km ) Precip ( " mm )
12:53 am 00:53 Partly Cloudy 23 -5 20 -6.7 88 88 SW 5 7 30.39 1029 8 13 0.00 0.00
1:53 am 01:53 Mostly Cloudy with Mist and Fog 22 -5.6 19 -7.2 89 89 SW 3 6 30.40 1029 6 10 0.00 0.00
2:53 am 02:53 Mostly Cloudy with Mist and Fog 20 -6.7 18 -7.8 92 92 SW 6 9 30.40 1029 5 8 0.00 0.00
3:53 am 03:53 Clear with Mist and Fog 19 -7.2 16 -8.9 88 88 WSW 3 6 30.40 1029 6 10 0.00 0.00
4:53 am 04:53 Mostly Clear with Mist and Fog 19 -7.2 17 -8.3 92 92 SW 5 7 30.40 1030 5 8 0.00 0.00
5:53 am 05:53 Clear with Mist and Fog 18 -7.8 16 -8.9 92 92 SW 5 7 30.42 1030 6 10 0.00 0.00
6:53 am 06:53 Partly Cloudy with Mist and Fog 17 -8.3 14 -10 88 88 Calm 30.43 1031 6 10 0.00 0.00
7:53 am 07:53 Mostly Cloudy 19 -7.2 17 -8.3 92 92 Calm 30.45 1031 7 11 0.00 0.00
8:53 am 08:53 Mostly Cloudy 21 -6.1 17 -8.3 85 85 Calm 30.46 1031 7 11 0.00 0.00
9:53 am 09:53 Cloudy 24 -4.4 19 -7.2 81 81 Calm 30.47 1032 8 13 0.00 0.00
10:53 am 10:53 Mostly Cloudy 29 -1.7 21 -6.1 72 72 Calm 30.48 1032 8 13 0.00 0.00
11:53 am 11:53 Mostly Cloudy 33 0.6 22 -5.6 64 64 SE 5 7 30.46 1032 9 14 0.00 0.00
12:53 pm 12:53 Cloudy 37 2.8 23 -5 57 57 ESE 5 7 30.45 1031 10 16 0.00 0.00
1:53 pm 13:53 Cloudy 38 3.3 21 -6.1 51 51 ESE 7 11 30.42 1030 10 16 0.00 0.00
2:53 pm 14:53 Cloudy 38 3.3 22 -5.6 52 52 ESE 9 15 30.38 1029 10 16 0.00 0.00
3:53 pm 15:53 Mostly Cloudy 40 4.4 23 -5 51 51 SE 10 17 30.37 1028 10 16 0.00 0.00
4:53 pm 16:53 Cloudy 39 3.9 24 -4.4 55 55 SE 10 17 30.40 1029 10 16 0.00 0.00
5:53 pm 17:53 Cloudy 38 3.3 25 -3.9 60 60 SE 9 15 30.39 1029 10 16 0.00 0.00
6:53 pm 18:53 Cloudy 39 3.9 25 -3.9 57 57 E 12 19 30.37 1029 10 16 0.00 0.00
7:53 pm 19:53 Cloudy 39 3.9 24 -4.4 55 55 SE 9 15 30.39 1029 10 16 0.00 0.00
8:53 pm 20:53 Cloudy 39 3.9 24 -4.4 55 55 ESE 10 17 30.39 1029 10 16 0.00 0.00
9:53 pm 21:53 Cloudy 38 3.3 25 -3.9 60 60 ESE 12 19 30.40 1029 10 16 0.00 0.00
10:53 pm 22:53 Partly Cloudy 37 2.8 25 -3.9 62 62 ESE 12 19 30.40 1029 10 16 0.00 0.00
11:53 pm 23:53 Mostly Cloudy 37 2.8 24 -4.4 59 59 E 12 19 30.39 1029 10 16 0.00 0.00

Powered by AerisWeather